K5TWC Weather Reports


time (UTC)temp
F
wind
direction
speed
knots
gust
knots
rain 1hr
in
rain 24hr
in
rain mn
in
humidity
%
barometer
mb
20260506141513 54 314 1.7 9.6 0.00 0.00 0.00 83 1014.9
20260506141013 54 360 1.7 9.6 0.00 0.00 0.00 83 1014.7
20260506140504 54 315 4.3 9.6 0.00 0.00 0.00 83 1014.5
20260506140016 54 24 3.5 9.6 0.00 0.00 0.00 83 1014.4
20260506135511 54 348 3.5 9.6 0.00 0.00 0.00 83 1014.4
20260506135008 54 22 2.6 9.6 0.00 0.00 0.00 83 1014.4
20260506134518 54 28 2.6 9.6 0.00 0.00 0.00 83 1014.4
20260506134011 54 323 5.2 10.4 0.00 0.00 0.00 83 1014.3
20260506133505 54 311 4.3 10.4 0.00 0.00 0.00 83 1014.3
20260506133027 54 17 1.7 11.3 0.00 0.00 0.00 83 1014.1
20260506132511 54 315 2.6 11.3 0.00 0.00 0.00 83 1014.0
20260506132007 54 348 4.3 10.4 0.00 0.00 0.00 82 1014.0
20260506131508 54 49 3.5 9.6 0.00 0.00 0.00 82 1013.9
20260506131003 54 360 2.6 9.6 0.00 0.00 0.00 83 1014.0
20260506130504 54 329 1.7 9.6 0.00 0.00 0.00 83 1013.9
20260506130012 54 352 3.5 12.2 0.00 0.00 0.00 83 1013.9
20260506125502 54 298 5.2 12.2 0.00 0.00 0.00 83 1013.8
20260506125004 54 20 4.3 8.7 0.00 0.00 0.00 83 1013.8
20260506124516 55 333 0.9 8.7 0.00 0.00 0.00 83 1013.5
20260506124008 54 342 1.7 8.7 0.00 0.00 0.00 82 1013.6
20260506123504 54 25 2.6 7.8 0.00 0.00 0.00 82 1013.6
20260506123028 54 330 2.6 8.7 0.00 0.00 0.00 82 1013.5
20260506122505 54 360 1.7 8.7 0.00 0.00 0.00 82 1013.3
20260506122008 55 327 3.5 8.7 0.00 0.00 0.00 82 1013.3
20260506121533 55 28 2.6 11.3 0.00 0.00 0.00 82 1013.4
20260506121008 55 342 3.5 11.3 0.00 0.00 0.00 82 1013.5
20260506120507 55 9 3.5 11.3 0.00 0.00 0.00 82 1013.3
20260506120011 55 306 3.5 11.3 0.00 0.00 0.00 81 1013.3
20260506115506 55 360 1.7 8.7 0.00 0.00 0.00 81 1013.1
20260506115002 55 329 2.6 10.4 0.00 0.00 0.00 81 1013.1
20260506114513 55 311 3.5 10.4 0.00 0.00 0.00 80 1012.8
20260506114007 55 306 3.5 10.4 0.00 0.00 0.00 80 1012.6
20260506113506 55 360 3.5 9.6 0.00 0.00 0.00 79 1012.4
20260506113020 55 329 3.5 11.3 0.00 0.00 0.00 79 1012.5
20260506112506 55 14 4.3 11.3 0.00 0.00 0.00 79 1012.6
20260506112009 55 311 4.3 13.0 0.00 0.00 0.00 79 1012.5
20260506111523 55 303 3.5 13.0 0.00 0.00 0.00 78 1012.3
20260506111007 55 315 6.1 11.3 0.00 0.00 0.00 78 1012.3
20260506110510 56 317 5.2 9.6 0.00 0.00 0.00 77 1012.3
20260506110029 56 327 3.5 8.7 0.00 0.00 0.00 77 1012.2
20260506105509 56 348 4.3 8.7 0.00 0.00 0.00 77 1012.0
20260506105008 57 342 2.6 8.7 0.00 0.00 0.00 77 1012.0
20260506104507 57 323 0.9 6.1 0.00 0.00 0.00 77 1011.8
20260506104004 57 360 1.7 7.8 0.00 0.00 0.00 77 1011.7
20260506103504 57 316 0.9 7.8 0.00 0.00 0.00 77 1011.6
20260506103015 57 348 1.7 5.2 0.00 0.00 0.00 77 1011.5
20260506102506 57 28 1.7 6.1 0.00 0.00 0.00 76 1011.6
20260506102008 57 351 1.7 7.0 0.00 0.00 0.00 76 1011.5
20260506101521 57 51 3.5 7.0 0.00 0.00 0.00 76 1011.4
20260506101008 57 342 1.7 8.7 0.00 0.00 0.00 76 1011.2
20260506100507 57 327 0.9 8.7 0.00 0.00 0.00 76 1011.3
20260506100025 57 340 0.9 7.0 0.00 0.00 0.00 76 1011.2
20260506095508 57 317 3.5 8.7 0.00 0.00 0.00 76 1011.1
20260506095009 57 327 0.9 8.7 0.00 0.00 0.00 76 1011.2
20260506094524 57 360 3.5 8.7 0.00 0.00 0.00 76 1011.2
20260506094012 57 336 2.6 7.0 0.00 0.00 0.00 76 1011.2
20260506093510 57 306 1.7 10.4 0.00 0.00 0.00 76 1011.0
20260506093011 58 306 3.5 10.4 0.00 0.00 0.00 76 1011.1
20260506092503 58 283 2.6 8.7 0.00 0.00 0.00 76 1011.1
20260506092007 58 9 0.0 4.3 0.00 0.00 0.00 76 1011.0
20260506091516 58 318 0.0 5.2 0.00 0.00 0.00 76 1010.9
20260506091006 58 349 1.7 5.2 0.00 0.00 0.00 76 1010.8
20260506090505 58 10 0.9 7.0 0.00 0.00 0.00 76 1010.7
20260506090022 58 19 1.7 7.0 0.00 0.00 0.00 76 1010.6
20260506085507 58 340 1.7 10.4 0.00 0.00 0.00 76 1010.6
20260506085007 58 352 0.9 10.4 0.00 0.00 0.00 76 1010.4
20260506084524 58 351 2.6 7.8 0.00 0.00 0.00 76 1010.5
20260506084007 58 344 2.6 7.0 0.00 0.00 0.00 76 1010.6
20260506083507 58 319 1.7 6.1 0.00 0.00 0.00 77 1010.5
20260506083027 58 331 0.9 6.1 0.00 0.00 0.00 77 1010.3
20260506082507 58 40 1.7 5.2 0.00 0.00 0.00 77 1010.2
20260506082011 58 50 0.9 6.1 0.00 0.00 0.00 77 1010.0
20260506081513 58 46 0.9 6.1 0.00 0.00 0.00 77 1010.2
20260506081003 58 47 0.9 4.3 0.00 0.00 0.00 76 1010.3
20260506080504 58 59 0.9 6.1 0.00 0.00 0.00 76 1010.2
20260506073508 58 22 2.6 7.8 0.00 0.00 0.00 77 1010.3
20260506073025 59 27 1.7 7.8 0.00 0.00 0.00 77 1010.3
20260506072507 59 334 2.6 7.0 0.00 0.00 0.00 77 1010.4
20260506072014 59 327 1.7 7.0 0.00 0.00 0.00 77 1010.3
20260506071531 59 57 2.6 8.7 0.00 0.00 0.00 77 1010.3
20260506071012 59 352 1.7 8.7 0.00 0.00 0.00 77 1010.3
20260506070506 59 78 1.7 8.7 0.00 0.00 0.00 77 1010.3
20260506062505 60 360 4.3 8.7 0.00 0.00 0.00 78 1010.2
20260506062004 61 315 2.6 8.7 0.00 0.00 0.00 78 1010.3
20260506061514 61 9 3.5 9.6 0.00 0.00 0.00 78 1010.2
20260506061004 61 49 2.6 9.6 0.00 0.00 0.00 78 1010.2
20260506060508 61 355 0.9 7.0 0.00 0.00 0.00 79 1010.2
20260506051005 64 309 4.3 8.7 0.00 0.00 0.00 79 1009.8
20260506050503 64 339 4.3 8.7 0.00 0.00 0.00 79 1009.8
20260506045003 65 360 1.7 10.4 0.00 0.00 0.00 79 1009.7
20260506044515 65 320 2.6 8.7 0.00 0.00 0.00 79 1009.7
20260506044003 65 360 2.6 8.7 0.00 0.00 0.00 79 1009.8
20260506043504 65 352 2.6 10.4 0.00 0.00 0.00 79 1009.7
20260506043020 66 282 4.3 10.4 0.00 0.00 0.00 78 1009.7
20260506042510 66 13 3.5 8.7 0.00 0.00 0.00 78 1009.7
20260506042011 66 355 3.5 10.4 0.00 0.00 0.00 78 1009.5
20260506041522 67 322 4.3 10.4 0.00 0.00 0.00 78 1009.3
20260506041006 67 313 2.6 9.6 0.00 0.00 0.00 78 1009.3
20260506040503 68 333 2.6 8.7 0.00 0.00 0.00 78 1009.3
20260506040023 68 360 4.3 8.7 0.00 0.00 0.00 77 1009.4
20260506035504 68 302 3.5 7.8 0.00 0.00 0.00 77 1009.2
20260506035004 69 338 2.6 8.7 0.00 0.00 0.00 77 1009.1
20260506034512 69 28 5.2 8.7 0.00 0.00 0.00 77 1009.1
20260506034005 69 306 2.6 7.0 0.00 0.00 0.00 77 1009.0
20260506033503 69 5 0.9 8.7 0.00 0.00 0.00 77 1008.9
20260506033016 70 360 1.7 8.7 0.00 0.00 0.00 77 1008.9
20260506032503 70 333 2.6 8.7 0.00 0.00 0.00 77 1008.6
20260506032009 70 355 0.9 8.7 0.00 0.00 0.00 76 1008.5
20260506031537 70 328 2.6 9.6 0.00 0.00 0.00 76 1008.6
20260506031008 70 345 3.5 9.6 0.00 0.00 0.00 76 1008.8
20260506030506 70 329 5.2 9.6 0.00 0.00 0.00 76 1008.6
20260506030024 71 301 5.2 9.6 0.00 0.00 0.00 75 1008.5
20260506025504 71 331 1.7 10.4 0.00 0.00 0.00 76 1008.3
20260506025003 72 360 4.3 10.4 0.00 0.00 0.00 75 1008.1
20260506024516 72 340 2.6 8.7 0.00 0.00 0.00 75 1008.0
20260506024006 73 326 3.5 11.3 0.00 0.00 0.00 75 1007.7
20260506023506 73 360 5.2 11.3 0.00 0.00 0.00 75 1007.5
20260506023012 74 331 3.5 8.7 0.00 0.00 0.00 74 1007.4
20260506022506 74 360 1.7 7.0 0.00 0.00 0.00 74 1007.1
20260506022006 74 360 2.6 4.3 0.00 0.00 0.00 73 1007.0
20260506021517 74 305 1.7 4.3 0.00 0.00 0.00 73 1006.8
20260506021007 74 337 0.0 7.0 0.00 0.00 0.00 73 1006.7
20260506020511 74 9 1.7 7.0 0.00 0.00 0.00 72 1006.8
20260506020021 75 323 0.0 8.7 0.00 0.00 0.00 72 1006.8
20260506015505 75 333 1.7 8.7 0.00 0.00 0.00 72 1006.8
20260506015007 75 305 2.6 7.0 0.00 0.00 0.00 72 1006.9
20260506014511 75 325 1.7 7.8 0.00 0.00 0.00 72 1006.6
20260506014002 75 317 1.7 7.8 0.00 0.00 0.00 72 1006.4
20260506013507 75 326 2.6 7.0 0.00 0.00 0.00 71 1006.4
20260506013009 75 331 1.7 7.0 0.00 0.00 0.00 71 1006.4
20260506012504 75 360 1.7 7.0 0.00 0.00 0.00 70 1006.8
20260506012004 76 300 1.7 9.6 0.00 0.00 0.00 70 1006.5
20260506011517 76 360 3.5 9.6 0.00 0.00 0.00 70 1006.1
20260506011003 76 360 3.5 9.6 0.00 0.00 0.00 70 1005.9
20260506010506 77 26 3.5 9.6 0.00 0.00 0.00 70 1006.0
20260506010018 78 36 4.3 9.6 0.00 0.00 0.00 69 1005.8
20260506005506 79 320 2.6 7.8 0.00 0.00 0.00 68 1005.9
20260506005009 79 9 2.6 6.1 0.00 0.00 0.00 67 1006.0
20260506004527 80 336 0.0 3.5 0.00 0.00 0.00 67 1005.9
20260506004013 80 338 0.9 5.2 0.00 0.00 0.00 66 1005.8
20260506003510 81 334 0.9 5.2 0.00 0.00 0.00 65 1005.6
20260506003012 82 355 0.0 5.2 0.00 0.00 0.00 65 1005.6
20260506002504 82 324 0.0 7.0 0.00 0.00 0.00 65 1005.8
20260506002004 82 271 0.0 7.0 0.00 0.00 0.00 66 1005.7
20260506001514 83 360 0.9 5.2 0.00 0.00 0.00 73 1005.5
20260506001004 83 231 0.0 5.2 0.00 0.00 0.00 73 1005.2
20260506000504 83 207 0.9 7.8 0.00 0.00 0.00 73 1005.3
20260506000021 83 168 0.0 7.8 0.00 0.00 0.00 73 1005.1
20260505235503 84 262 0.9 7.8 0.00 0.00 0.00 72 1004.6
20260505235007 84 188 0.9 8.7 0.00 0.00 0.00 72 1004.6
20260505234530 84 167 2.6 8.7 0.00 0.00 0.00 72 1004.3
20260505234007 85 155 1.7 8.7 0.00 0.00 0.00 71 1004.3
20260505233508 85 200 2.6 8.7 0.00 0.00 0.00 71 1004.5
20260505233026 85 165 3.5 8.7 0.00 0.00 0.00 70 1004.5
20260505232512 85 360 2.6 9.6 0.00 0.00 0.00 70 1004.4
20260505232010 86 360 3.5 9.6 0.00 0.00 0.00 69 1004.3
20260505231510 86 360 2.6 7.8 0.00 0.00 0.00 69 1004.4
20260505231003 86 170 1.7 8.7 0.00 0.00 0.00 69 1004.2
20260505230503 87 205 1.7 9.6 0.00 0.00 0.00 68 1004.3
20260505230022 87 198 0.9 9.6 0.00 0.00 0.00 68 1004.2
20260505225507 87 186 0.9 5.2 0.00 0.00 0.00 69 1004.2
20260505225004 86 169 1.7 6.1 0.00 0.00 0.00 68 1004.2
20260505224520 87 138 0.9 7.8 0.00 0.00 0.00 68 1004.2
20260505224004 87 198 2.6 9.6 0.00 0.00 0.00 68 1004.2
20260505223507 87 198 3.5 9.6 0.00 0.00 0.00 67 1004.0
20260505223024 88 360 3.5 11.3 0.00 0.00 0.00 66 1003.8
20260505222508 89 139 0.9 11.3 0.00 0.00 0.00 65 1003.8
20260505222008 90 156 1.7 7.8 0.00 0.00 0.00 64 1003.9
20260505221525 90 223 0.0 7.0 0.00 0.00 0.00 62 1003.9
20260505221011 90 233 0.0 7.0 0.00 0.00 0.00 62 1003.9
20260505220512 90 263 0.9 7.0 0.00 0.00 0.00 62 1003.9
20260505220011 90 134 1.7 7.0 0.00 0.00 0.00 62 1004.0
20260505215504 90 250 0.9 7.0 0.00 0.00 0.00 62 1003.9
20260505215004 91 123 1.7 7.0 0.00 0.00 0.00 61 1003.9
20260505214518 91 150 1.7 8.7 0.00 0.00 0.00 61 1004.0
20260505214007 91 360 0.0 8.7 0.00 0.00 0.00 60 1004.2
20260505213504 91 199 1.7 7.0 0.00 0.00 0.00 59 1004.2
20260505213021 92 88 0.9 5.2 0.00 0.00 0.00 58 1004.2
20260505212508 92 196 0.9 5.2 0.00 0.00 0.00 59 1004.3
20260505212010 92 331 0.0 11.3 0.00 0.00 0.00 59 1004.3
20260505211523 92 190 1.7 11.3 0.00 0.00 0.00 58 1004.3
20260505211010 92 155 1.7 7.8 0.00 0.00 0.00 59 1004.2
20260505210508 91 178 0.9 8.7 0.00 0.00 0.00 59 1004.3
20260505210029 91 223 2.6 11.3 0.00 0.00 0.00 59 1004.4
20260505205512 90 215 5.2 11.3 0.00 0.00 0.00 59 1004.4
20260505205011 90 258 0.0 7.0 0.00 0.00 0.00 60 1004.6
20260505204513 90 352 0.9 8.7 0.00 0.00 0.00 60 1004.8
20260505204004 89 188 0.9 8.7 0.00 0.00 0.00 61 1004.9
20260505203508 89 234 0.9 7.8 0.00 0.00 0.00 62 1004.9
20260505203017 89 12 0.9 11.3 0.00 0.00 0.00 61 1004.8
20260505202507 89 256 0.9 11.3 0.00 0.00 0.00 62 1005.0
20260505202008 89 94 0.9 7.8 0.00 0.00 0.00 62 1005.0
20260505201522 89 360 0.0 10.4 0.00 0.00 0.00 62 1005.0
20260505201010 89 102 0.9 10.4 0.00 0.00 0.00 62 1005.1
20260505200516 89 360 0.0 10.4 0.00 0.00 0.00 62 1005.1
20260505200036 89 319 0.9 5.2 0.00 0.00 0.00 62 1005.1
20260505195504 89 93 0.9 7.8 0.00 0.00 0.00 63 1005.0
20260505195002 89 114 0.9 7.8 0.00 0.00 0.00 64 1005.1
20260505194509 88 224 0.9 7.8 0.00 0.00 0.00 64 1005.1
20260505194006 88 232 2.6 12.2 0.00 0.00 0.00 64 1005.2
20260505193504 88 232 3.5 12.2 0.00 0.00 0.00 64 1005.2
20260505193028 88 194 0.9 8.7 0.00 0.00 0.00 65 1005.2
20260505192514 87 241 0.9 7.8 0.00 0.00 0.00 66 1005.2
20260505192006 87 182 0.9 7.8 0.00 0.00 0.00 66 1005.2
20260505191522 86 360 0.0 5.2 0.00 0.00 0.00 67 1005.2
20260505191012 86 240 0.9 4.3 0.00 0.00 0.00 67 1005.3
20260505190506 85 190 0.9 7.0 0.00 0.00 0.00 67 1005.3
20260505190033 85 200 0.9 7.8 0.00 0.00 0.00 67 1005.4
20260505185507 85 109 1.7 8.7 0.00 0.00 0.00 67 1005.5
20260505185008 85 11 2.6 8.7 0.00 0.00 0.00 66 1005.5
20260505184507 85 256 0.9 9.6 0.00 0.00 0.00 67 1005.5
20260505184005 85 360 1.7 9.6 0.00 0.00 0.00 66 1005.5
20260505183504 85 257 0.9 10.4 0.00 0.00 0.00 66 1005.5
20260505183014 85 175 1.7 10.4 0.00 0.00 0.00 67 1005.4
20260505182503 85 226 1.7 7.0 0.00 0.00 0.00 66 1005.5
20260505182007 86 360 1.7 7.0 0.00 0.00 0.00 65 1005.5
20260505181518 86 207 0.9 7.0 0.00 0.00 0.00 66 1005.6
20260505181004 85 185 0.0 12.2 0.00 0.00 0.00 66 1005.5
20260505180505 85 227 2.6 12.2 0.00 0.00 0.00 65 1005.5
20260505180020 85 187 1.7 12.2 0.00 0.00 0.00 66 1005.4
20260505175507 85 360 2.6 6.1 0.00 0.00 0.00 66 1005.4
20260505175006 85 239 0.9 7.0 0.00 0.00 0.00 66 1005.5
20260505174535 85 77 1.7 10.4 0.00 0.00 0.00 67 1005.6
20260505174009 85 360 1.7 10.4 0.00 0.00 0.00 67 1005.6
20260505173508 85 360 1.7 14.8 0.00 0.00 0.00 68 1005.5
20260505173010 84 181 2.6 14.8 0.00 0.00 0.00 67 1005.6
20260505172504 84 286 2.6 8.7 0.00 0.00 0.00 68 1005.5
20260505172012 84 208 2.6 9.6 0.00 0.00 0.00 68 1005.6
20260505171518 84 261 2.6 10.4 0.00 0.00 0.00 68 1005.7
20260505171004 84 360 1.7 10.4 0.00 0.00 0.00 68 1005.7
20260505170505 83 119 0.9 9.6 0.00 0.00 0.00 70 1005.8
20260505170020 83 182 2.6 9.6 0.00 0.00 0.00 70 1005.7
20260505165504 82 257 1.7 8.7 0.00 0.00 0.00 71 1005.6
20260505165011 82 155 1.7 8.7 0.00 0.00 0.00 70 1005.6
20260505164522 82 217 1.7 7.8 0.00 0.00 0.00 70 1005.6
20260505164007 82 263 1.7 10.4 0.00 0.00 0.00 70 1005.7
20260505163509 82 207 3.5 10.4 0.00 0.00 0.00 71 1005.6
20260505163025 82 249 1.7 10.4 0.00 0.00 0.00 71 1005.6
20260505162507 82 168 2.6 10.4 0.00 0.00 0.00 71 1005.5
20260505162010 81 194 2.6 9.6 0.00 0.00 0.00 72 1005.4
20260505161510 81 178 0.9 8.7 0.00 0.00 0.00 73 1005.4
20260505161005 81 211 1.7 8.7 0.00 0.00 0.00 73 1005.3
20260505160507 80 166 0.0 7.0 0.00 0.00 0.00 74 1005.3
20260505153024 78 236 3.5 11.3 0.00 0.00 0.00 77 1005.6
20260505152511 77 211 2.6 11.3 0.00 0.00 0.00 78 1005.6
20260505152017 77 276 1.7 8.7 0.00 0.00 0.00 78 1005.6
20260505151526 77 153 1.7 8.7 0.00 0.00 0.00 79 1005.7
20260505151012 76 259 2.6 8.7 0.00 0.00 0.00 79 1005.6
20260505150511 76 360 2.6 8.7 0.00 0.00 0.00 79 1005.6